Location: Nasgenstadt
(48.2786°N, 9.7553°E)
Time: 15:07:20
(UTC+02:00)

STARLINK-2704 - Pass Details

Date: 01 August 2021
Orbit: 546 x 548 km, 53.1° (Epoch: 18 September)

Event Time Altitude Azimuth Distance (km) Brightness Sun altitude
Rises 22:04:02 0° 286° (WNW) 2,715 8.5 -9.9°
Reaches altitude 10° 22:07:15 10° 260° (W) 1,816 6.8 -10.3°
Maximum altitude 22:09:16 13° 230° (SW) 1,605 6.1 -10.6°
Drops below altitude 10° 22:11:17 10° 201° (SSW) 1,810 6.0 -10.8°
Enters shadow 22:13:05 - 183° (S) 2,255 6.4 -11.0°
